Terminal Aerodrome Forecast
Issued by NWS

Home | Current Version | Previous Version | Text Only | Print | Product List | Glossary On
Versions: 1 2 3 4 5 6 7 8 9 10 11 12 13 14 15 16 17 18 19 20 21 22 23 24 25 26 27 28 29 30 31 32 33 34 35 36 37
000
FTUS41 KCAR 100045 AAA
TAFFVE
TAF AMD
KFVE 100045Z 1001/1024 31015G30KT P6SM OVC030
     FM100400 30008KT P6SM OVC030
     FM101300 30011G18KT P6SM -SHSN BKN025
     FM101600 31011G18KT P6SM SCT025
     FM102100 30009KT P6SM SCT030=

USA.gov is the U.S. government's official web portal to all federal, state and local government web resources and services.